LOT53P LKPR-EPWA

Flight info

Callsign LOT53P
Flight time 0h 55m
Altitude 33000
Route ARTUP DCT LAGAR DCT MISKA DCT OKENO Q277 AGAVA
Aircraft B38M/M-SDE1FGHILORVWXY/HB1

Departure

Time 2026-05-01 08:21
Airport Václav Havel Airport Prague (LKPR)

Arrival

Time 2026-05-01 09:16
Airport Warsaw Chopin Airport (EPWA)
Time Latitude Longitude Altitude Speed Heading
2026-05-01 07:38 50.10558 14.26345 1176 ft 0 kts 34°
2026-05-01 07:53 50.10558 14.26344 1176 ft 0 kts 34°
2026-05-01 08:03 50.10557 14.26344 1176 ft 0 kts 34°
2026-05-01 08:10 50.10552 14.26338 1176 ft 2 kts 37°
2026-05-01 08:11 50.10529 14.26301 1171 ft 2 kts 63°
2026-05-01 08:11 50.10529 14.26254 1172 ft 1 kts 117°
2026-05-01 08:12 50.10530 14.26251 1172 ft 0 kts 117°
2026-05-01 08:14 50.10530 14.26252 1172 ft 1 kts 117°
2026-05-01 08:14 50.10523 14.26271 1173 ft 1 kts 123°
2026-05-01 08:15 50.10508 14.26305 1173 ft 7 kts 123°
2026-05-01 08:15 50.10418 14.26510 1175 ft 13 kts 124°
2026-05-01 08:15 50.10374 14.26606 1176 ft 10 kts 140°
2026-05-01 08:16 50.10311 14.26582 1174 ft 10 kts 214°
2026-05-01 08:16 50.10250 14.26530 1179 ft 9 kts 181°
2026-05-01 08:16 50.10204 14.26586 1178 ft 10 kts 126°
2026-05-01 08:16 50.10148 14.26703 1179 ft 17 kts 127°
2026-05-01 08:17 50.10075 14.26855 1190 ft 16 kts 127°
2026-05-01 08:17 50.10015 14.26980 1197 ft 15 kts 126°
2026-05-01 08:17 50.09952 14.27110 1202 ft 17 kts 127°
2026-05-01 08:17 50.09869 14.27277 1204 ft 22 kts 128°
2026-05-01 08:18 50.09759 14.27456 1208 ft 23 kts 135°
2026-05-01 08:18 50.09548 14.27781 1214 ft 20 kts 136°
2026-05-01 08:19 50.09372 14.28051 1217 ft 20 kts 136°
2026-05-01 08:19 50.09294 14.28170 1217 ft 14 kts 135°
2026-05-01 08:19 50.09213 14.28282 1214 ft 17 kts 154°
2026-05-01 08:19 50.09127 14.28237 1213 ft 12 kts 217°
2026-05-01 08:20 50.09068 14.28135 1211 ft 14 kts 273°
2026-05-01 08:20 50.09096 14.28060 1211 ft 4 kts 308°
2026-05-01 08:20 50.09113 14.28027 1211 ft 4 kts 308°
2026-05-01 08:20 50.09224 14.27795 1213 ft 65 kts 307°
2026-05-01 08:21 50.09630 14.26955 1209 ft 137 kts 306°
2026-05-01 08:21 50.10317 14.25557 1462 ft 176 kts 308°
2026-05-01 08:21 50.11066 14.23994 2406 ft 182 kts 307°
2026-05-01 08:21 50.11855 14.22351 3273 ft 198 kts 308°
2026-05-01 08:22 50.12740 14.20516 3868 ft 224 kts 308°
2026-05-01 08:22 50.13726 14.18513 4653 ft 240 kts 309°
2026-05-01 08:22 50.14743 14.16376 5564 ft 251 kts 308°
2026-05-01 08:22 50.15814 14.14131 6430 ft 267 kts 309°
2026-05-01 08:23 50.16960 14.11741 7235 ft 281 kts 309°
2026-05-01 08:23 50.18151 14.09248 8058 ft 294 kts 310°
2026-05-01 08:23 50.19381 14.06687 9094 ft 294 kts 310°
2026-05-01 08:23 50.20604 14.04150 10280 ft 293 kts 311°
2026-05-01 08:24 50.21862 14.01605 11052 ft 300 kts 317°
2026-05-01 08:24 50.23530 13.99734 11534 ft 307 kts 342°
2026-05-01 08:24 50.25638 13.99041 11988 ft 316 kts
2026-05-01 08:24 50.27845 13.99558 12418 ft 327 kts 22°
2026-05-01 08:25 50.29817 14.01380 12947 ft 335 kts 42°
2026-05-01 08:25 50.31420 14.04101 13537 ft 344 kts 54°
2026-05-01 08:25 50.32770 14.07190 14418 ft 345 kts 56°
2026-05-01 08:25 50.34128 14.10306 15087 ft 349 kts 56°
2026-05-01 08:26 50.35501 14.13458 15784 ft 352 kts 56°
2026-05-01 08:26 50.36883 14.16640 16481 ft 355 kts 56°
2026-05-01 08:26 50.38278 14.19852 17152 ft 358 kts 56°
2026-05-01 08:26 50.39685 14.23097 17837 ft 361 kts 56°
2026-05-01 08:27 50.41102 14.26367 18500 ft 364 kts 56°
2026-05-01 08:27 50.42502 14.29605 19076 ft 367 kts 56°
2026-05-01 08:27 50.43966 14.32992 19636 ft 370 kts 56°
2026-05-01 08:27 50.45413 14.36347 20179 ft 373 kts 56°
2026-05-01 08:28 50.46873 14.39737 20723 ft 376 kts 56°
2026-05-01 08:28 50.48327 14.43114 21249 ft 379 kts 56°
2026-05-01 08:28 50.49807 14.46558 21787 ft 382 kts 56°
2026-05-01 08:28 50.51295 14.50025 22324 ft 384 kts 56°
2026-05-01 08:29 50.52793 14.53519 22822 ft 388 kts 56°
2026-05-01 08:29 50.54301 14.57043 23353 ft 390 kts 56°
2026-05-01 08:29 50.55819 14.60596 23875 ft 393 kts 56°
2026-05-01 08:29 50.57346 14.64173 24297 ft 396 kts 56°
2026-05-01 08:30 50.58884 14.67781 24707 ft 398 kts 56°
2026-05-01 08:30 50.60431 14.71415 25119 ft 401 kts 55°
2026-05-01 08:30 50.61985 14.75072 25508 ft 403 kts 55°
2026-05-01 08:30 50.63548 14.78753 25901 ft 406 kts 55°
2026-05-01 08:31 50.65119 14.82459 26295 ft 408 kts 55°
2026-05-01 08:31 50.66697 14.86188 26668 ft 410 kts 55°
2026-05-01 08:31 50.68258 14.89973 27027 ft 414 kts 60°
2026-05-01 08:31 50.69368 14.94172 27448 ft 416 kts 67°
2026-05-01 08:32 50.70413 14.98451 27759 ft 420 kts 67°
2026-05-01 08:32 50.71460 15.02764 28121 ft 422 kts 67°
2026-05-01 08:32 50.72502 15.07104 28486 ft 424 kts 67°
2026-05-01 08:32 50.73547 15.11478 28825 ft 427 kts 67°
2026-05-01 08:33 50.74593 15.15872 29172 ft 429 kts 67°
2026-05-01 08:33 50.75644 15.20291 29494 ft 431 kts 67°
2026-05-01 08:33 50.76700 15.24743 29823 ft 434 kts 67°
2026-05-01 08:33 50.77756 15.29204 30273 ft 433 kts 67°
2026-05-01 08:34 50.78452 15.32147 30595 ft 431 kts 67°
2026-05-01 08:34 50.79519 15.36568 30970 ft 430 kts 65°
2026-05-01 08:34 50.80658 15.40939 31331 ft 430 kts 65°
2026-05-01 08:34 50.81787 15.45307 31710 ft 429 kts 65°
2026-05-01 08:35 50.82906 15.49663 32114 ft 428 kts 65°
2026-05-01 08:35 50.84022 15.54023 32498 ft 427 kts 65°
2026-05-01 08:35 50.85133 15.58373 32886 ft 426 kts 65°
2026-05-01 08:35 50.86241 15.62715 33264 ft 425 kts 65°
2026-05-01 08:36 50.87347 15.67061 33412 ft 425 kts 65°
2026-05-01 08:36 50.89545 15.75724 33404 ft 423 kts 65°
2026-05-01 08:37 50.91733 15.84380 33405 ft 423 kts 65°
2026-05-01 08:37 50.93915 15.93045 33406 ft 423 kts 65°
2026-05-01 08:38 50.96073 16.01652 33409 ft 423 kts 65°
2026-05-01 08:38 50.98239 16.10319 33400 ft 422 kts 65°
2026-05-01 08:39 51.00412 16.19052 33401 ft 422 kts 65°
2026-05-01 08:39 51.02561 16.27719 33401 ft 422 kts 65°
2026-05-01 08:40 51.05754 16.40659 33398 ft 421 kts 66°
2026-05-01 08:40 51.07880 16.49323 33403 ft 420 kts 66°
2026-05-01 08:41 51.10001 16.57994 33402 ft 420 kts 66°
2026-05-01 08:41 51.12109 16.66648 33398 ft 420 kts 66°
2026-05-01 08:42 51.14211 16.75313 33391 ft 419 kts 66°
2026-05-01 08:42 51.16308 16.83986 33413 ft 419 kts 66°
2026-05-01 08:43 51.18398 16.92659 33396 ft 419 kts 66°
2026-05-01 08:43 51.20475 17.01327 33402 ft 418 kts 66°
2026-05-01 08:44 51.22545 17.09989 33402 ft 418 kts 66°
2026-05-01 08:44 51.24610 17.18659 33400 ft 417 kts 66°
2026-05-01 08:45 51.26664 17.27323 33395 ft 417 kts 66°
2026-05-01 08:45 51.28711 17.35989 33387 ft 417 kts 66°
2026-05-01 08:46 51.30749 17.44653 33397 ft 416 kts 66°
2026-05-01 08:46 51.32780 17.53320 33395 ft 416 kts 66°
2026-05-01 08:47 51.34802 17.61986 33390 ft 416 kts 66°
2026-05-01 08:47 51.36804 17.70598 33385 ft 416 kts 66°
2026-05-01 08:48 51.38824 17.79326 33386 ft 415 kts 66°
2026-05-01 08:48 51.40809 17.87938 33382 ft 415 kts 66°
2026-05-01 08:49 51.42813 17.96668 33383 ft 414 kts 66°
2026-05-01 08:49 51.44782 18.05276 33385 ft 414 kts 66°
2026-05-01 08:50 51.46757 18.13948 33377 ft 414 kts 66°
2026-05-01 08:50 51.48724 18.22624 33377 ft 413 kts 66°
2026-05-01 08:51 51.50683 18.31298 33375 ft 413 kts 66°
2026-05-01 08:51 51.52633 18.39967 33376 ft 413 kts 66°
2026-05-01 08:52 51.54579 18.48645 33371 ft 413 kts 66°
2026-05-01 08:52 51.56501 18.57330 33366 ft 414 kts 70°
2026-05-01 08:53 51.56932 18.61933 33371 ft 422 kts 83°
2026-05-01 08:53 51.57015 18.66651 33363 ft 422 kts 82°
2026-05-01 08:53 51.57191 18.76102 33369 ft 423 kts 83°
2026-05-01 08:54 51.57315 18.85434 32945 ft 422 kts 83°
2026-05-01 08:54 51.57372 18.90145 32178 ft 421 kts 83°
2026-05-01 08:54 51.57426 18.94855 31404 ft 423 kts 83°
2026-05-01 08:55 51.57478 18.99569 30790 ft 420 kts 83°
2026-05-01 08:55 51.57529 19.04247 30052 ft 419 kts 83°
2026-05-01 08:55 51.57577 19.08937 29161 ft 420 kts 83°
2026-05-01 08:55 51.57623 19.13611 28536 ft 415 kts 83°
2026-05-01 08:56 51.57667 19.18231 27900 ft 411 kts 83°
2026-05-01 08:56 51.57710 19.22878 27233 ft 420 kts 84°
2026-05-01 08:56 51.57751 19.27577 26619 ft 422 kts 84°
2026-05-01 08:56 51.57790 19.32298 26011 ft 421 kts 84°
2026-05-01 08:57 51.57827 19.36981 25403 ft 417 kts 83°
2026-05-01 08:57 51.57862 19.41625 24813 ft 413 kts 83°
2026-05-01 08:57 51.57894 19.46222 24211 ft 409 kts 83°
2026-05-01 08:57 51.57924 19.50708 23583 ft 405 kts 83°
2026-05-01 08:58 51.57953 19.55220 22938 ft 401 kts 83°
2026-05-01 08:58 51.57981 19.59663 22363 ft 395 kts 83°
2026-05-01 08:58 51.58006 19.64109 21756 ft 391 kts 84°
2026-05-01 08:58 51.58028 19.68412 21162 ft 391 kts 84°
2026-05-01 08:59 51.58051 19.72780 20644 ft 391 kts 84°
2026-05-01 08:59 51.58071 19.77138 20256 ft 387 kts 84°
2026-05-01 08:59 51.58089 19.81393 20059 ft 374 kts 84°
2026-05-01 08:59 51.58106 19.85505 19863 ft 362 kts 84°
2026-05-01 09:00 51.58120 19.89489 19657 ft 350 kts 83°
2026-05-01 09:00 51.58133 19.93338 19486 ft 338 kts 83°
2026-05-01 09:00 51.58088 19.97069 19242 ft 333 kts 86°
2026-05-01 09:00 51.57966 20.00782 18981 ft 333 kts 86°
2026-05-01 09:01 51.57849 20.04516 18732 ft 335 kts 86°
2026-05-01 09:01 51.57735 20.08249 18456 ft 335 kts 86°
2026-05-01 09:01 51.57715 20.12008 17710 ft 340 kts 77°
2026-05-01 09:01 51.58320 20.15608 17256 ft 334 kts 62°
2026-05-01 09:02 51.59483 20.18906 16677 ft 346 kts 58°
2026-05-01 09:02 51.60644 20.22345 16129 ft 352 kts 59°
2026-05-01 09:02 51.61797 20.25843 15572 ft 355 kts 59°
2026-05-01 09:02 51.62942 20.29364 14996 ft 354 kts 59°
2026-05-01 09:03 51.64074 20.32879 14420 ft 353 kts 59°
2026-05-01 09:03 51.65199 20.36389 13796 ft 353 kts 59°
2026-05-01 09:03 51.66321 20.39897 13168 ft 350 kts 59°
2026-05-01 09:03 51.67429 20.43370 12589 ft 347 kts 59°
2026-05-01 09:04 51.68527 20.46813 12045 ft 344 kts 60°
2026-05-01 09:04 51.69507 20.49888 11734 ft 335 kts 59°
2026-05-01 09:04 51.70533 20.53107 11572 ft 310 kts 59°
2026-05-01 09:04 51.71486 20.56093 11387 ft 289 kts 59°
2026-05-01 09:05 51.72372 20.58877 11216 ft 269 kts 59°
2026-05-01 09:05 51.73198 20.61476 11055 ft 253 kts 59°
2026-05-01 09:05 51.73989 20.63970 10819 ft 248 kts 59°
2026-05-01 09:05 51.74791 20.66505 10579 ft 259 kts 59°
2026-05-01 09:06 51.75615 20.69122 10382 ft 264 kts 59°
2026-05-01 09:06 51.76432 20.71719 10206 ft 266 kts 59°
2026-05-01 09:06 51.77243 20.74300 10031 ft 266 kts 59°
2026-05-01 09:06 51.78050 20.76867 9716 ft 268 kts 59°
2026-05-01 09:07 51.78890 20.79548 9336 ft 267 kts 59°
2026-05-01 09:07 51.79730 20.82224 8967 ft 266 kts 59°
2026-05-01 09:07 51.80561 20.84877 8603 ft 264 kts 60°
2026-05-01 09:07 51.81388 20.87520 8247 ft 263 kts 60°
2026-05-01 09:08 51.82211 20.90154 7891 ft 262 kts 60°
2026-05-01 09:08 51.83031 20.92782 7527 ft 262 kts 60°
2026-05-01 09:08 51.83848 20.95404 7177 ft 261 kts 60°
2026-05-01 09:08 51.84664 20.98025 6815 ft 261 kts 60°
2026-05-01 09:09 51.85478 21.00639 6453 ft 260 kts 60°
2026-05-01 09:09 51.86291 21.03256 6077 ft 260 kts 60°
2026-05-01 09:09 51.87102 21.05868 5733 ft 259 kts 61°
2026-05-01 09:09 51.87911 21.08474 5362 ft 259 kts 61°
2026-05-01 09:10 51.88717 21.11075 5001 ft 259 kts 61°
2026-05-01 09:10 51.89546 21.13654 4697 ft 256 kts 54°
2026-05-01 09:10 51.90800 21.15561 4511 ft 244 kts 26°
2026-05-01 09:10 51.92381 21.16273 4408 ft 232 kts
2026-05-01 09:11 51.93938 21.15867 4266 ft 225 kts 340°
2026-05-01 09:11 51.95349 21.14854 4163 ft 218 kts 336°
2026-05-01 09:11 51.96693 21.13811 4056 ft 211 kts 335°
2026-05-01 09:11 51.97989 21.12763 4027 ft 209 kts 334°
2026-05-01 09:12 51.99306 21.11710 3917 ft 212 kts 334°
2026-05-01 09:12 52.00613 21.10620 3662 ft 211 kts 333°
2026-05-01 09:12 52.01907 21.09503 3402 ft 210 kts 333°
2026-05-01 09:12 52.03199 21.08385 3124 ft 211 kts 332°
2026-05-01 09:13 52.04459 21.07283 2900 ft 199 kts 332°
2026-05-01 09:13 52.05652 21.06242 2631 ft 190 kts 332°
2026-05-01 09:13 52.06809 21.05231 2362 ft 186 kts 335°
2026-05-01 09:13 52.07903 21.04291 2157 ft 172 kts 330°
2026-05-01 09:14 52.08919 21.03384 1920 ft 160 kts 333°
2026-05-01 09:14 52.09857 21.02574 1731 ft 145 kts 332°
2026-05-01 09:14 52.10729 21.01816 1496 ft 142 kts 332°
2026-05-01 09:14 52.11579 21.01082 1243 ft 135 kts 333°
2026-05-01 09:15 52.12394 21.00358 1056 ft 134 kts 330°
2026-05-01 09:15 52.13213 20.99625 878 ft 134 kts 332°
2026-05-01 09:15 52.14057 20.98908 701 ft 138 kts 331°
2026-05-01 09:15 52.14899 20.98177 519 ft 136 kts 330°
2026-05-01 09:16 52.15699 20.97472 365 ft 136 kts 331°
2026-05-01 09:16 52.16431 20.96838 337 ft 93 kts 330°
2026-05-01 09:16 52.16813 20.96501 340 ft 44 kts 332°
2026-05-01 09:17 52.17262 20.96246 339 ft 23 kts
2026-05-01 09:17 52.17347 20.96249 338 ft 5 kts
2026-05-01 09:17 52.17414 20.96351 336 ft 9 kts 62°
2026-05-01 09:18 52.17449 20.96454 336 ft 12 kts 61°
2026-05-01 09:18 52.17546 20.96684 336 ft 12 kts 59°
2026-05-01 09:19 52.17623 20.96907 339 ft 10 kts 82°
2026-05-01 09:19 52.17575 20.96990 337 ft 12 kts 151°
2026-05-01 09:19 52.17500 20.97056 339 ft 9 kts 152°
2026-05-01 09:20 52.17409 20.97123 337 ft 2 kts 190°
2026-05-01 09:20 52.17386 20.97084 336 ft 1 kts 237°
2026-05-01 09:21 52.17377 20.97054 336 ft 0 kts 242°
2026-05-01 09:22 52.17377 20.97055 339 ft 0 kts 242°